| time (UTC) | temp F | wind direction | speed knots | gust knots | rain 1hr in | rain 24hr in | rain mn in | humidity % | barometer mb |
| 20260505193952 | 60 | 98 | 6.1 | 12.2 | 0.17 | 1.44 | 1.44 | 99 | 1015.3 |
| 20260505193450 | 60 | 94 | 5.2 | 7.0 | 0.17 | 1.42 | 1.42 | 99 | 1015.4 |
| 20260505192947 | 60 | 63 | 1.7 | 6.1 | 0.21 | 1.41 | 1.41 | 99 | 1015.4 |
| 20260505192446 | 59 | 108 | 6.1 | 7.8 | 0.21 | 1.39 | 1.39 | 99 | 1015.4 |
| 20260505191943 | 59 | 110 | 6.1 | 10.4 | 0.17 | 1.37 | 1.37 | 99 | 1015.2 |
| 20260505191442 | 59 | 108 | 5.2 | 10.4 | 0.19 | 1.35 | 1.35 | 99 | 1015.4 |
| 20260505190938 | 59 | 94 | 7.8 | 11.3 | 0.19 | 1.33 | 1.33 | 99 | 1015.6 |
| 20260505190433 | 59 | 114 | 2.6 | 10.4 | 0.24 | 1.31 | 1.31 | 99 | 1015.6 |
| 20260505185929 | 59 | 101 | 4.3 | 7.0 | 0.35 | 1.30 | 1.30 | 99 | 1015.8 |
| 20260505185427 | 59 | 98 | 7.8 | 7.8 | 0.42 | 1.27 | 1.27 | 99 | 1015.8 |
| 20260505184923 | 59 | 121 | 0.9 | 8.7 | 0.50 | 1.23 | 1.23 | 99 | 1015.9 |
| 20260505184420 | 60 | 115 | 7.8 | 13.0 | 0.73 | 1.19 | 1.19 | 99 | 1015.8 |
| 20260505183916 | 60 | 93 | 2.6 | 5.2 | 0.61 | 1.14 | 1.14 | 99 | 1015.9 |
| 20260505183413 | 60 | 155 | 2.6 | 5.2 | 0.28 | 1.06 | 1.06 | 99 | 1015.8 |
| 20260505182910 | 60 | 149 | 3.5 | 4.3 | 0.28 | 1.03 | 1.03 | 99 | 1015.8 |
| 20260505182407 | 60 | 141 | 1.7 | 4.3 | 0.38 | 1.01 | 1.01 | 99 | 1015.7 |
| 20260505181903 | 60 | 119 | 1.7 | 4.3 | 0.40 | 0.98 | 0.98 | 99 | 1015.7 |
| 20260505181401 | 60 | 122 | 2.6 | 4.3 | 0.54 | 0.94 | 0.94 | 99 | 1015.7 |
| 20260505180857 | 60 | 121 | 1.7 | 4.3 | 0.50 | 0.90 | 0.90 | 99 | 1016.0 |
| 20260505180354 | 60 | 121 | 4.3 | 7.0 | 0.21 | 0.84 | 0.84 | 99 | 1016.0 |
| 20260505175850 | 61 | 146 | 5.2 | 6.1 | 0.17 | 0.82 | 0.82 | 99 | 1015.9 |
| 20260505175347 | 61 | 128 | 3.5 | 5.2 | 0.19 | 0.80 | 0.80 | 99 | 1016.3 |
| 20260505174843 | 61 | 131 | 1.7 | 3.5 | 0.50 | 0.79 | 0.79 | 99 | 1016.3 |
| 20260505174341 | 61 | 137 | 3.5 | 3.5 | 0.40 | 0.76 | 0.76 | 99 | 1016.0 |
| 20260505173836 | 61 | 130 | 3.5 | 4.3 | 0.09 | 0.69 | 0.69 | 99 | 1016.1 |
| 20260505173333 | 60 | 132 | 1.7 | 6.1 | 0.09 | 0.69 | 0.69 | 99 | 1016.2 |
| 20260505172830 | 60 | 128 | 5.2 | 7.0 | 0.07 | 0.68 | 0.68 | 99 | 1016.1 |
| 20260505172328 | 60 | 118 | 4.3 | 7.8 | 0.07 | 0.67 | 0.67 | 99 | 1015.9 |
| 20260505171827 | 60 | 155 | 1.7 | 5.2 | 0.07 | 0.67 | 0.67 | 99 | 1015.6 |
| 20260505171325 | 60 | 151 | 2.6 | 6.1 | 0.07 | 0.66 | 0.66 | 99 | 1015.7 |
| 20260505170821 | 60 | 163 | 1.7 | 6.1 | 0.09 | 0.65 | 0.65 | 99 | 1015.7 |
| 20260505170318 | 60 | 148 | 2.6 | 7.0 | 0.21 | 0.65 | 0.65 | 99 | 1015.6 |
| 20260505165813 | 60 | 134 | 2.6 | 5.2 | 0.28 | 0.63 | 0.63 | 99 | 1015.7 |
| 20260505165309 | 60 | 116 | 7.0 | 10.4 | 0.19 | 0.61 | 0.61 | 99 | 1015.6 |
| 20260505164805 | 60 | 138 | 4.3 | 8.7 | 0.09 | 0.58 | 0.58 | 99 | 1015.7 |
| 20260505164303 | 59 | 147 | 2.6 | 7.8 | 0.12 | 0.57 | 0.57 | 99 | 1015.7 |
| 20260505163801 | 60 | 146 | 4.3 | 4.3 | 0.17 | 0.57 | 0.57 | 99 | 1015.5 |
| 20260505163259 | 60 | 131 | 5.2 | 5.2 | 0.26 | 0.56 | 0.56 | 99 | 1015.7 |
| 20260505162756 | 60 | 140 | 2.6 | 9.6 | 0.28 | 0.54 | 0.54 | 99 | 1015.6 |
| 20260505162253 | 60 | 152 | 1.7 | 4.3 | 0.26 | 0.51 | 0.51 | 99 | 1015.7 |
| 20260505161750 | 60 | 127 | 1.7 | 5.2 | 0.21 | 0.48 | 0.48 | 99 | 1015.7 |
| 20260505161247 | 60 | 144 | 3.5 | 6.1 | 0.24 | 0.46 | 0.46 | 99 | 1015.8 |
| 20260505160744 | 60 | 171 | 1.7 | 4.3 | 0.19 | 0.45 | 0.45 | 99 | 1015.9 |
| 20260505160242 | 60 | 134 | 2.6 | 5.2 | 0.07 | 0.42 | 0.42 | 99 | 1015.8 |
| 20260505153221 | 59 | 193 | 1.7 | 6.1 | 0.17 | 0.37 | 0.37 | 99 | 1015.5 |
| 20260505152718 | 59 | 186 | 2.6 | 4.3 | 0.24 | 0.35 | 0.35 | 99 | 1015.6 |
| 20260505152214 | 59 | 151 | 5.2 | 6.1 | 0.17 | 0.34 | 0.34 | 99 | 1015.8 |
| 20260505151709 | 59 | 178 | 5.2 | 6.1 | 0.05 | 0.32 | 0.32 | 99 | 1016.0 |
| 20260505151207 | 59 | 174 | 3.5 | 6.1 | 0.00 | 0.31 | 0.31 | 99 | 1016.0 |
| 20260505150703 | 59 | 161 | 5.2 | 7.8 | 0.00 | 0.31 | 0.31 | 99 | 1015.8 |
| 20260505150200 | 59 | 159 | 3.5 | 9.6 | 0.05 | 0.31 | 0.31 | 99 | 1015.6 |
| 20260505140628 | 59 | 159 | 2.6 | 6.1 | 0.12 | 0.17 | 0.17 | 99 | 1016.0 |
| 20260505140125 | 59 | 175 | 7.8 | 8.7 | 0.05 | 0.16 | 0.16 | 99 | 1016.1 |
| 20260505125041 | 60 | 185 | 3.5 | 7.8 | 0.00 | 0.10 | 0.10 | 95 | 1016.8 |
| 20260505124538 | 60 | 203 | 3.5 | 7.0 | 0.00 | 0.10 | 0.10 | 95 | 1016.9 |
| 20260505124034 | 61 | 205 | 1.7 | 4.3 | 0.00 | 0.10 | 0.10 | 96 | 1016.7 |
| 20260505123531 | 61 | 213 | 3.5 | 7.0 | 0.00 | 0.10 | 0.10 | 96 | 1016.5 |
| 20260505123027 | 61 | 183 | 1.7 | 7.0 | 0.00 | 0.10 | 0.10 | 96 | 1016.4 |
| 20260505122524 | 61 | 183 | 2.6 | 5.2 | 0.00 | 0.10 | 0.10 | 96 | 1016.4 |
| 20260505122021 | 60 | 231 | 4.3 | 6.1 | 0.00 | 0.10 | 0.10 | 97 | 1016.5 |
| 20260505121518 | 60 | 223 | 4.3 | 6.1 | 0.00 | 0.10 | 0.10 | 97 | 1016.5 |
| 20260505121014 | 60 | 233 | 3.5 | 7.8 | 0.00 | 0.10 | 0.10 | 97 | 1016.7 |
| 20260505120511 | 60 | 207 | 4.3 | 7.0 | 0.00 | 0.10 | 0.10 | 98 | 1016.6 |
| 20260505120006 | 59 | 201 | 2.6 | 7.8 | 0.00 | 0.10 | 0.10 | 98 | 1016.8 |
| 20260505115501 | 59 | 224 | 2.6 | 7.8 | 0.00 | 0.10 | 0.10 | 98 | 1016.9 |
| 20260505114959 | 59 | 228 | 4.3 | 9.6 | 0.00 | 0.10 | 0.10 | 98 | 1017.0 |
| 20260505114455 | 59 | 236 | 6.1 | 11.3 | 0.00 | 0.10 | 0.10 | 97 | 1017.0 |
| 20260505113952 | 59 | 217 | 6.1 | 10.4 | 0.00 | 0.10 | 0.10 | 97 | 1016.9 |
| 20260505113449 | 59 | 229 | 5.2 | 12.2 | 0.00 | 0.10 | 0.10 | 97 | 1017.1 |
| 20260505112944 | 59 | 246 | 5.2 | 7.8 | 0.00 | 0.10 | 0.10 | 98 | 1017.1 |
| 20260505112442 | 59 | 204 | 5.2 | 9.6 | 0.00 | 0.10 | 0.10 | 97 | 1017.4 |
| 20260505111938 | 59 | 197 | 5.2 | 7.8 | 0.00 | 0.10 | 0.10 | 97 | 1017.6 |
| 20260505111432 | 59 | 210 | 8.7 | 9.6 | 0.00 | 0.10 | 0.10 | 97 | 1017.7 |
| 20260505110929 | 59 | 220 | 4.3 | 11.3 | 0.00 | 0.10 | 0.10 | 97 | 1017.5 |
| 20260505110426 | 59 | 188 | 3.5 | 8.7 | 0.00 | 0.10 | 0.10 | 97 | 1017.5 |
| 20260505101857 | 58 | 219 | 3.5 | 9.6 | 0.07 | 0.10 | 0.10 | 97 | 1018.1 |
| 20260505101352 | 58 | 206 | 4.3 | 9.6 | 0.14 | 0.10 | 0.10 | 96 | 1018.3 |
| 20260505100848 | 58 | 194 | 5.2 | 6.1 | 0.17 | 0.09 | 0.09 | 96 | 1018.3 |
| 20260505100344 | 58 | 201 | 2.6 | 7.0 | 0.14 | 0.07 | 0.07 | 95 | 1018.5 |
| 20260505095840 | 58 | 228 | 4.3 | 7.0 | 0.02 | 0.06 | 0.06 | 94 | 1018.7 |
| 20260505095338 | 58 | 199 | 1.7 | 8.7 | 0.00 | 0.05 | 0.05 | 94 | 1018.8 |
| 20260505094834 | 58 | 208 | 2.6 | 8.7 | 0.00 | 0.05 | 0.05 | 95 | 1018.7 |
| 20260505094331 | 58 | 232 | 3.5 | 8.7 | 0.00 | 0.05 | 0.05 | 95 | 1018.4 |
| 20260505093826 | 58 | 186 | 9.6 | 10.4 | 0.00 | 0.05 | 0.05 | 95 | 1018.2 |
| 20260505093324 | 58 | 208 | 4.3 | 11.3 | 0.00 | 0.05 | 0.05 | 95 | 1018.4 |
| 20260505092821 | 58 | 235 | 6.1 | 10.4 | 0.00 | 0.05 | 0.05 | 95 | 1018.4 |
| 20260505092319 | 58 | 210 | 7.8 | 9.6 | 0.00 | 0.05 | 0.05 | 95 | 1018.5 |
| 20260505091816 | 58 | 219 | 7.8 | 13.0 | 0.02 | 0.05 | 0.05 | 95 | 1018.6 |
| 20260505091314 | 58 | 212 | 4.3 | 12.2 | 0.07 | 0.05 | 0.05 | 95 | 1018.4 |
| 20260505090812 | 58 | 200 | 3.5 | 8.7 | 0.12 | 0.05 | 0.05 | 94 | 1018.4 |
| 20260505090310 | 58 | 204 | 6.1 | 8.7 | 0.09 | 0.04 | 0.04 | 93 | 1018.8 |
| 20260505085807 | 59 | 198 | 0.0 | 8.7 | 0.02 | 0.03 | 0.03 | 92 | 1018.7 |
| 20260505085305 | 59 | 226 | 7.8 | 12.2 | 0.00 | 0.02 | 0.02 | 91 | 1018.7 |
| 20260505084802 | 59 | 201 | 1.7 | 7.8 | 0.00 | 0.02 | 0.02 | 91 | 1018.6 |
| 20260505084301 | 59 | 212 | 2.6 | 7.8 | 0.00 | 0.02 | 0.02 | 91 | 1018.6 |
| 20260505083757 | 59 | 225 | 4.3 | 7.8 | 0.00 | 0.02 | 0.02 | 91 | 1018.3 |
| 20260505083254 | 59 | 230 | 2.6 | 6.1 | 0.00 | 0.02 | 0.02 | 91 | 1018.4 |
| 20260505082750 | 59 | 246 | 3.5 | 13.0 | 0.00 | 0.02 | 0.02 | 90 | 1018.5 |
| 20260505082248 | 59 | 214 | 4.3 | 12.2 | 0.00 | 0.02 | 0.02 | 90 | 1018.5 |
| 20260505081743 | 59 | 219 | 5.2 | 14.8 | 0.00 | 0.02 | 0.02 | 91 | 1018.5 |
| 20260505081241 | 58 | 217 | 7.8 | 13.9 | 0.00 | 0.02 | 0.02 | 91 | 1018.7 |
| 20260505080738 | 58 | 203 | 7.0 | 10.4 | 0.00 | 0.02 | 0.02 | 91 | 1018.7 |
| 20260505080233 | 58 | 222 | 5.2 | 9.6 | 0.00 | 0.02 | 0.02 | 91 | 1018.8 |
| 20260505075729 | 58 | 243 | 2.6 | 7.0 | 0.00 | 0.02 | 0.02 | 92 | 1018.9 |
| 20260505075227 | 58 | 250 | 4.3 | 11.3 | 0.00 | 0.02 | 0.02 | 91 | 1018.8 |
| 20260505074724 | 58 | 245 | 5.2 | 11.3 | 0.00 | 0.02 | 0.02 | 91 | 1018.6 |
| 20260505074221 | 58 | 222 | 5.2 | 10.4 | 0.00 | 0.02 | 0.02 | 90 | 1018.6 |
| 20260505073718 | 58 | 233 | 7.8 | 13.9 | 0.00 | 0.02 | 0.02 | 90 | 1018.7 |
| 20260505073216 | 58 | 227 | 7.0 | 12.2 | 0.00 | 0.02 | 0.02 | 92 | 1018.7 |
| 20260505072712 | 57 | 205 | 6.1 | 12.2 | 0.00 | 0.02 | 0.02 | 93 | 1018.6 |
| 20260505072208 | 57 | 213 | 3.5 | 13.9 | 0.00 | 0.02 | 0.02 | 94 | 1018.9 |
| 20260505071704 | 57 | 209 | 4.3 | 10.4 | 0.00 | 0.02 | 0.02 | 94 | 1018.6 |
| 20260505071201 | 57 | 217 | 7.8 | 10.4 | 0.00 | 0.02 | 0.02 | 94 | 1018.6 |
| 20260505070659 | 56 | 183 | 5.2 | 11.3 | 0.02 | 0.02 | 0.02 | 95 | 1018.6 |
| 20260505070155 | 57 | 231 | 2.6 | 13.9 | 0.02 | 0.02 | 0.02 | 95 | 1018.6 |
| 20260505065651 | 57 | 238 | 2.6 | 8.7 | 0.00 | 0.02 | 0.02 | 95 | 1018.4 |
| 20260505065148 | 56 | 163 | 2.6 | 16.5 | 0.05 | 0.02 | 0.02 | 94 | 1018.4 |
| 20260505064645 | 56 | 213 | 6.1 | 9.6 | 0.09 | 0.02 | 0.02 | 93 | 1018.6 |
| 20260505064143 | 57 | 270 | 4.3 | 11.3 | 0.05 | 0.01 | 0.01 | 92 | 1018.5 |
| 20260505063640 | 57 | 259 | 3.5 | 12.2 | 0.02 | 0.00 | 0.00 | 91 | 1018.3 |
| 20260505063136 | 57 | 251 | 7.0 | 11.3 | 0.02 | 0.00 | 0.00 | 90 | 1018.4 |
| 20260505062633 | 58 | 216 | 2.6 | 8.7 | 0.00 | 0.00 | 0.00 | 88 | 1018.4 |
| 20260505062130 | 59 | 217 | 2.6 | 13.0 | 0.00 | 0.00 | 0.00 | 85 | 1018.4 |
| 20260505061627 | 59 | 237 | 3.5 | 13.9 | 0.00 | 0.00 | 0.00 | 83 | 1018.2 |
| 20260505061125 | 59 | 231 | 2.6 | 7.8 | 0.00 | 0.00 | 0.00 | 83 | 1018.1 |
| 20260505060622 | 59 | 191 | 2.6 | 11.3 | 0.00 | 0.00 | 0.00 | 83 | 1017.9 |
| 20260505060119 | 59 | 196 | 3.5 | 13.0 | 0.00 | 0.00 | 0.00 | 83 | 1017.9 |
| 20260505055614 | 59 | 224 | 6.1 | 10.4 | 0.00 | 0.00 | 0.00 | 83 | 1017.7 |
| 20260505055111 | 59 | 201 | 6.1 | 13.0 | 0.00 | 0.00 | 0.00 | 83 | 1017.6 |
| 20260505054608 | 59 | 235 | 7.0 | 10.4 | 0.00 | 0.00 | 0.00 | 83 | 1017.5 |
| 20260505054107 | 59 | 224 | 8.7 | 13.9 | 0.00 | 0.00 | 0.00 | 84 | 1017.5 |
| 20260505053603 | 59 | 205 | 5.2 | 11.3 | 0.00 | 0.00 | 0.00 | 84 | 1017.6 |
| 20260505053100 | 59 | 207 | 1.7 | 13.0 | 0.00 | 0.00 | 0.00 | 84 | 1017.3 |
| 20260505052557 | 59 | 223 | 8.7 | 12.2 | 0.00 | 0.00 | 0.00 | 84 | 1017.5 |
| 20260505052054 | 59 | 240 | 5.2 | 13.0 | 0.00 | 0.00 | 0.00 | 83 | 1017.2 |
| 20260505051551 | 59 | 196 | 5.2 | 13.9 | 0.00 | 0.00 | 0.00 | 83 | 1017.2 |
| 20260505051049 | 59 | 213 | 5.2 | 17.4 | 0.00 | 0.00 | 0.00 | 83 | 1017.4 |
| 20260505050547 | 59 | 248 | 7.0 | 12.2 | 0.00 | 0.00 | 0.00 | 83 | 1017.2 |
| 20260505041515 | 58 | 231 | 7.0 | 13.0 | 0.00 | 0.00 | 0.00 | 81 | 1017.0 |
| 20260505041012 | 58 | 239 | 6.1 | 14.8 | 0.00 | 0.00 | 0.00 | 81 | 1017.1 |
| 20260505040509 | 58 | 227 | 10.4 | 10.4 | 0.00 | 0.00 | 0.00 | 81 | 1016.9 |
| 20260505040007 | 58 | 209 | 4.3 | 12.2 | 0.00 | 0.00 | 0.00 | 80 | 1017.0 |
| 20260505035502 | 58 | 228 | 7.0 | 10.4 | 0.00 | 0.00 | 0.00 | 79 | 1016.9 |
| 20260505034959 | 58 | 205 | 5.2 | 12.2 | 0.00 | 0.00 | 0.00 | 79 | 1016.7 |
| 20260505034455 | 58 | 233 | 4.3 | 9.6 | 0.00 | 0.00 | 0.00 | 80 | 1017.3 |
| 20260505033953 | 58 | 234 | 9.6 | 13.0 | 0.00 | 0.00 | 0.00 | 80 | 1016.8 |
| 20260505033449 | 58 | 218 | 6.1 | 10.4 | 0.00 | 0.00 | 0.00 | 80 | 1017.0 |
| 20260505032948 | 58 | 225 | 5.2 | 12.2 | 0.00 | 0.00 | 0.00 | 81 | 1017.1 |
| 20260505032445 | 58 | 220 | 4.3 | 9.6 | 0.00 | 0.00 | 0.00 | 82 | 1017.0 |
| 20260505031941 | 58 | 231 | 5.2 | 13.0 | 0.00 | 0.00 | 0.00 | 83 | 1016.9 |
| 20260505031438 | 58 | 222 | 7.0 | 13.0 | 0.00 | 0.00 | 0.00 | 83 | 1016.9 |
| 20260505030935 | 58 | 208 | 8.7 | 11.3 | 0.00 | 0.00 | 0.00 | 84 | 1016.9 |
| 20260505030431 | 58 | 225 | 4.3 | 10.4 | 0.00 | 0.00 | 0.00 | 84 | 1016.9 |
| 20260505025926 | 58 | 240 | 5.2 | 13.0 | 0.00 | 0.00 | 0.00 | 85 | 1016.7 |
| 20260505025424 | 58 | 216 | 9.6 | 14.8 | 0.00 | 0.00 | 0.00 | 85 | 1016.7 |
| 20260505024923 | 58 | 205 | 7.8 | 18.2 | 0.00 | 0.00 | 0.00 | 84 | 1016.9 |
| 20260505024420 | 58 | 197 | 5.2 | 13.0 | 0.00 | 0.00 | 0.00 | 85 | 1016.6 |
| 20260505023917 | 58 | 218 | 13.9 | 16.5 | 0.00 | 0.00 | 0.00 | 84 | 1016.7 |
| 20260505023414 | 59 | 210 | 8.7 | 17.4 | 0.00 | 0.00 | 0.00 | 83 | 1016.7 |
| 20260505022911 | 59 | 227 | 7.8 | 13.0 | 0.00 | 0.00 | 0.00 | 82 | 1016.4 |
| 20260505022408 | 59 | 285 | 10.4 | 13.9 | 0.00 | 0.00 | 0.00 | 83 | 1016.5 |
| 20260505021905 | 59 | 225 | 7.8 | 10.4 | 0.00 | 0.00 | 0.00 | 84 | 1016.6 |
| 20260505021402 | 59 | 238 | 7.0 | 13.0 | 0.00 | 0.00 | 0.00 | 83 | 1016.4 |
| 20260505020858 | 60 | 210 | 7.8 | 11.3 | 0.00 | 0.00 | 0.00 | 83 | 1016.4 |
| 20260505020353 | 60 | 225 | 5.2 | 20.0 | 0.00 | 0.00 | 0.00 | 83 | 1016.5 |
| 20260505015850 | 60 | 196 | 7.8 | 14.8 | 0.00 | 0.00 | 0.00 | 83 | 1016.2 |
| 20260505015347 | 60 | 205 | 11.3 | 18.2 | 0.00 | 0.00 | 0.00 | 83 | 1016.6 |
| 20260505014845 | 60 | 217 | 9.6 | 13.9 | 0.00 | 0.00 | 0.00 | 82 | 1016.4 |
| 20260505014341 | 60 | 219 | 13.0 | 17.4 | 0.00 | 0.00 | 0.00 | 82 | 1016.6 |
| 20260505013838 | 60 | 229 | 11.3 | 14.8 | 0.00 | 0.00 | 0.00 | 82 | 1016.3 |
| 20260505013335 | 60 | 220 | 3.5 | 13.0 | 0.00 | 0.00 | 0.00 | 83 | 1016.5 |
| 20260505012834 | 60 | 219 | 7.8 | 13.9 | 0.00 | 0.00 | 0.00 | 83 | 1016.3 |
| 20260505012331 | 60 | 197 | 7.8 | 20.0 | 0.00 | 0.00 | 0.00 | 83 | 1016.7 |
| 20260505011827 | 60 | 205 | 6.1 | 10.4 | 0.00 | 0.00 | 0.00 | 83 | 1016.4 |
| 20260505011324 | 60 | 148 | 2.6 | 10.4 | 0.00 | 0.00 | 0.00 | 83 | 1016.7 |
| 20260505010820 | 60 | 204 | 6.1 | 8.7 | 0.00 | 0.00 | 0.00 | 83 | 1016.6 |
| 20260505010316 | 60 | 203 | 6.1 | 13.9 | 0.00 | 0.00 | 0.00 | 84 | 1016.6 |
| 20260505005812 | 60 | 214 | 4.3 | 13.0 | 0.00 | 0.00 | 0.00 | 84 | 1016.8 |
| 20260505005310 | 60 | 244 | 9.6 | 11.3 | 0.00 | 0.00 | 0.00 | 84 | 1017.1 |
| 20260505004807 | 60 | 218 | 4.3 | 13.0 | 0.00 | 0.00 | 0.00 | 84 | 1016.8 |
| 20260505004303 | 60 | 215 | 9.6 | 11.3 | 0.00 | 0.00 | 0.00 | 84 | 1016.9 |
| 20260505003801 | 60 | 230 | 8.7 | 14.8 | 0.00 | 0.00 | 0.00 | 84 | 1016.8 |
| 20260505003258 | 60 | 219 | 8.7 | 16.5 | 0.00 | 0.00 | 0.00 | 85 | 1017.1 |
| 20260505002754 | 60 | 224 | 9.6 | 13.9 | 0.00 | 0.00 | 0.00 | 85 | 1017.1 |
| 20260505002251 | 60 | 205 | 5.2 | 11.3 | 0.00 | 0.00 | 0.00 | 84 | 1017.1 |
| 20260505001749 | 61 | 241 | 1.7 | 12.2 | 0.00 | 0.00 | 0.00 | 84 | 1017.2 |
| 20260505001246 | 61 | 238 | 8.7 | 10.4 | 0.00 | 0.00 | 0.00 | 84 | 1017.2 |
| 20260505000743 | 61 | 203 | 8.7 | 11.3 | 0.00 | 0.00 | 0.00 | 84 | 1017.3 |
| 20260505000241 | 61 | 219 | 1.7 | 11.3 | 0.00 | 0.00 | 0.00 | 84 | 1017.1 |
| 20260504235737 | 61 | 229 | 5.2 | 12.2 | 0.00 | 0.00 | 0.00 | 84 | 1017.1 |
| 20260504235233 | 61 | 205 | 7.0 | 14.8 | 0.00 | 0.00 | 0.00 | 84 | 1017.2 |
| 20260504234731 | 61 | 239 | 7.0 | 12.2 | 0.00 | 0.00 | 0.00 | 85 | 1017.1 |
| 20260504234228 | 61 | 208 | 4.3 | 13.0 | 0.00 | 0.00 | 0.00 | 85 | 1017.2 |
| 20260504233724 | 61 | 232 | 7.0 | 12.2 | 0.00 | 0.00 | 0.00 | 85 | 1017.2 |
| 20260504233220 | 61 | 219 | 4.3 | 13.9 | 0.00 | 0.00 | 0.00 | 84 | 1017.0 |
| 20260504232717 | 61 | 199 | 10.4 | 11.3 | 0.00 | 0.00 | 0.00 | 84 | 1016.9 |
| 20260504232214 | 61 | 238 | 6.1 | 11.3 | 0.00 | 0.00 | 0.00 | 84 | 1017.1 |
| 20260504231711 | 61 | 222 | 4.3 | 12.2 | 0.00 | 0.00 | 0.00 | 84 | 1017.1 |
| 20260504231207 | 61 | 193 | 3.5 | 14.8 | 0.00 | 0.00 | 0.00 | 84 | 1016.9 |
| 20260504230703 | 61 | 185 | 3.5 | 11.3 | 0.00 | 0.00 | 0.00 | 84 | 1016.9 |
| 20260504230202 | 61 | 198 | 10.4 | 14.8 | 0.00 | 0.00 | 0.00 | 83 | 1017.0 |
| 20260504225701 | 61 | 214 | 7.8 | 15.6 | 0.00 | 0.00 | 0.00 | 83 | 1017.0 |
| 20260504225156 | 61 | 204 | 9.6 | 14.8 | 0.00 | 0.00 | 0.00 | 83 | 1016.9 |
| 20260504224654 | 61 | 184 | 1.7 | 13.0 | 0.00 | 0.00 | 0.00 | 83 | 1016.9 |
| 20260504224150 | 61 | 211 | 7.0 | 13.9 | 0.00 | 0.00 | 0.00 | 83 | 1017.0 |
| 20260504223647 | 61 | 219 | 5.2 | 13.0 | 0.00 | 0.00 | 0.00 | 83 | 1016.8 |
| 20260504223143 | 61 | 222 | 7.0 | 10.4 | 0.00 | 0.00 | 0.00 | 83 | 1016.8 |
| 20260504222640 | 61 | 195 | 4.3 | 11.3 | 0.00 | 0.00 | 0.00 | 83 | 1016.7 |
| 20260504222137 | 61 | 213 | 6.1 | 16.5 | 0.00 | 0.00 | 0.00 | 83 | 1016.6 |
| 20260504221634 | 61 | 205 | 5.2 | 15.6 | 0.00 | 0.00 | 0.00 | 83 | 1016.9 |
| 20260504221131 | 61 | 191 | 3.5 | 13.0 | 0.00 | 0.00 | 0.00 | 83 | 1016.7 |
| 20260504220627 | 62 | 191 | 4.3 | 13.0 | 0.00 | 0.00 | 0.00 | 83 | 1016.8 |
| 20260504220126 | 62 | 211 | 3.5 | 13.9 | 0.00 | 0.00 | 0.00 | 83 | 1016.9 |
| 20260504215621 | 62 | 218 | 4.3 | 14.8 | 0.00 | 0.00 | 0.00 | 84 | 1017.0 |
| 20260504215119 | 62 | 185 | 8.7 | 13.0 | 0.00 | 0.00 | 0.00 | 84 | 1017.0 |
| 20260504214614 | 62 | 196 | 8.7 | 11.3 | 0.00 | 0.00 | 0.00 | 84 | 1016.8 |
| 20260504214111 | 62 | 231 | 7.8 | 11.3 | 0.00 | 0.00 | 0.00 | 85 | 1016.9 |
| 20260504213608 | 62 | 224 | 2.6 | 14.8 | 0.00 | 0.00 | 0.00 | 84 | 1017.0 |
| 20260504213105 | 62 | 245 | 7.0 | 13.0 | 0.00 | 0.00 | 0.00 | 85 | 1017.0 |
| 20260504212600 | 62 | 214 | 7.8 | 13.0 | 0.00 | 0.00 | 0.00 | 85 | 1017.0 |
| 20260504212058 | 62 | 202 | 9.6 | 13.0 | 0.00 | 0.00 | 0.00 | 85 | 1017.1 |
| 20260504211554 | 62 | 213 | 7.8 | 16.5 | 0.00 | 0.00 | 0.00 | 85 | 1016.9 |
| 20260504211051 | 62 | 204 | 7.8 | 9.6 | 0.00 | 0.00 | 0.00 | 86 | 1017.1 |
| 20260504210549 | 62 | 201 | 7.0 | 15.6 | 0.00 | 0.00 | 0.00 | 86 | 1017.3 |
| 20260504210045 | 62 | 214 | 7.8 | 11.3 | 0.00 | 0.00 | 0.00 | 87 | 1017.2 |
| 20260504205543 | 62 | 187 | 9.6 | 13.9 | 0.00 | 0.00 | 0.00 | 87 | 1017.5 |
| 20260504205041 | 62 | 194 | 5.2 | 9.6 | 0.00 | 0.00 | 0.00 | 88 | 1017.5 |
| 20260504204538 | 62 | 208 | 6.1 | 11.3 | 0.00 | 0.00 | 0.00 | 88 | 1017.8 |
| 20260504204038 | 62 | 225 | 7.0 | 12.2 | 0.00 | 0.00 | 0.00 | 89 | 1017.5 |
| 20260504203535 | 62 | 235 | 9.6 | 12.2 | 0.00 | 0.00 | 0.00 | 89 | 1017.6 |
| 20260504203032 | 62 | 217 | 7.0 | 9.6 | 0.00 | 0.00 | 0.00 | 89 | 1017.6 |
| 20260504202528 | 62 | 218 | 4.3 | 10.4 | 0.00 | 0.00 | 0.00 | 89 | 1017.5 |
| 20260504202025 | 62 | 228 | 8.7 | 14.8 | 0.00 | 0.00 | 0.00 | 90 | 1017.6 |
| 20260504201522 | 62 | 179 | 4.3 | 17.4 | 0.00 | 0.00 | 0.00 | 90 | 1017.5 |
| 20260504201020 | 62 | 208 | 6.1 | 13.0 | 0.00 | 0.00 | 0.00 | 90 | 1017.5 |
| 20260504200516 | 62 | 230 | 6.1 | 14.8 | 0.00 | 0.00 | 0.00 | 91 | 1017.7 |
| 20260504200013 | 62 | 193 | 6.1 | 12.2 | 0.00 | 0.00 | 0.00 | 91 | 1017.8 |
| 20260504195509 | 62 | 241 | 5.2 | 12.2 | 0.00 | 0.00 | 0.00 | 91 | 1017.7 |
| 20260504195006 | 62 | 219 | 9.6 | 13.9 | 0.00 | 0.00 | 0.00 | 91 | 1017.8 |
| 20260504194502 | 62 | 207 | 7.8 | 11.3 | 0.00 | 0.00 | 0.00 | 91 | 1017.7 |